CW3467 Sant Marti de Canals ES current weather conditions

sailwx.info

Wind from 114

Air temperature 12.2° C
Dewpoint 9.1° C

Last reported at 2015-Mar-01 22:51 UTC.
Time now 2015-Mar-01 23:28 UTC

Location: N 42°14' E 000°59'.
View on Google Maps.

See reports from other nearby stations

  
Tides and Currents Weather Stations Pressure Air Temp Water Temp Dewpoint Dewpoint Depression Visibility Wind Speed Wind Dir Waves Ship Positions
date/time (UTC)wind fromknots sea level pressurealtimeterstation pressurevisibilityair tempwater tempwave heightnotes
2015-Mar-01 22:51 114 12.2
2015-Mar-01 22:36 092 12.2
2015-Mar-01 22:21 238 12.8
2015-Mar-01 22:06 225 13.3
2015-Mar-01 21:51 150 13.3
2015-Mar-01 21:36 125 1 gusting 4 13.3
2015-Mar-01 21:21 134 1 gusting 3 13.3
2015-Mar-01 21:06 109 13.9
2015-Mar-01 20:51 128 0 gusting 2 13.9
2015-Mar-01 20:36 094 0 gusting 1 13.3
2015-Mar-01 20:21 179 13.9
2015-Mar-01 20:06 159 13.9
2015-Mar-01 19:51 131 0 gusting 4 14.4
2015-Mar-01 19:36 123 1 gusting 3 14.4
2015-Mar-01 19:21 134 2 gusting 4 14.4
2015-Mar-01 19:06 122 2 gusting 4 14.4
2015-Mar-01 18:51 094 1 gusting 1 14.4
2015-Mar-01 18:36 039 0 gusting 1 15.0
2015-Mar-01 18:21 327 15.6
2015-Mar-01 18:06 109 3 gusting 6 15.6
2015-Mar-01 17:51 132 4 gusting 6 16.1
2015-Mar-01 17:36 120 4 gusting 6 16.7
2015-Mar-01 17:21 113 2 gusting 5 17.2
2015-Mar-01 17:06 135 4 gusting 6 17.2
2015-Mar-01 16:51 197 1 gusting 5 17.2
2015-Mar-01 16:36 141 2 gusting 5 17.2
2015-Mar-01 16:21 195 1 gusting 5 17.8
2015-Mar-01 16:06 215 1 gusting 6 17.8
2015-Mar-01 15:51 222 4 gusting 7 17.8
2015-Mar-01 15:36 214 3 gusting 8 18.3
2015-Mar-01 15:21 207 1 gusting 5 18.9
2015-Mar-01 15:06 176 0 gusting 9 18.3
2015-Mar-01 14:51 055 1 gusting 5 18.3
2015-Mar-01 14:36 207 1 gusting 6 18.9
2015-Mar-01 14:21 221 0 gusting 6 18.3
2015-Mar-01 14:06 184 4 gusting 7 17.8
2015-Mar-01 13:51 210 1 gusting 6 18.3
2015-Mar-01 13:36 111 3 gusting 6 17.8
2015-Mar-01 13:21 204 1 gusting 5 17.2
2015-Mar-01 13:06 152 2 gusting 4 17.8
2015-Mar-01 12:51 201 1 gusting 4 17.2
2015-Mar-01 12:36 285 0 gusting 4 17.2
2015-Mar-01 12:21 217 1 gusting 3 16.7
2015-Mar-01 12:06 218 0 gusting 3 15.6
2015-Mar-01 11:51 226 16.1
2015-Mar-01 11:36 218 15.6
2015-Mar-01 11:20 250 14.4
2015-Mar-01 11:05 233 0 gusting 4 14.4
2015-Mar-01 10:50 208 14.4
2015-Mar-01 10:35 224 0 gusting 3 13.3
2015-Mar-01 10:20 069 12.8
2015-Mar-01 10:05 220 0 gusting 2 11.1
2015-Mar-01 09:50 200 10.6
2015-Mar-01 09:35 238 10.6
2015-Mar-01 09:20 270 9.4
2015-Mar-01 09:05 160 1 gusting 4 8.9
2015-Mar-01 08:50 128 8.3
2015-Mar-01 08:35 240 6.7
2015-Mar-01 08:20 136 6.7
2015-Mar-01 08:05 213 5.6
2015-Mar-01 07:50 203 5.0
2015-Mar-01 07:35 016 0 gusting 3 4.4
2015-Mar-01 07:20 333 5.0
2015-Mar-01 07:05 097 4.4
2015-Mar-01 06:50 354 4.4
2015-Mar-01 06:35 348 4.4
2015-Mar-01 06:20 266 5.0
2015-Mar-01 06:05 098 0 gusting 2 4.4
2015-Mar-01 05:50 001 5.0
2015-Mar-01 05:35 360 0 gusting 1 5.0
2015-Mar-01 05:20 115 5.0
2015-Mar-01 05:04 109 5.0
2015-Mar-01 04:49 111 4.4
2015-Mar-01 04:34 106 4.4
2015-Mar-01 04:19 054 5.0
2015-Mar-01 04:04 050 5.0
2015-Mar-01 03:49 269 5.0
2015-Mar-01 03:34 082 5.0
2015-Mar-01 03:19 076 5.0
2015-Mar-01 03:04 016 0 gusting 0 5.6
2015-Mar-01 02:49 008 5.0
2015-Mar-01 02:34 135 0 gusting 1 5.6
2015-Mar-01 02:19 103 6.1
2015-Mar-01 02:04 122 6.1
2015-Mar-01 01:49 122 6.1
2015-Mar-01 01:34 132 6.7
2015-Mar-01 01:19 133 6.7
2015-Mar-01 01:04 133 6.7
2015-Mar-01 00:49 133 6.1
2015-Mar-01 00:34 133 6.1
2015-Mar-01 00:19 187 6.1
2015-Mar-01 00:04 029 0 gusting 2 6.1
2015-Feb-28 23:49 213 0 gusting 2 6.1
2015-Feb-28 23:34 106 6.7
2015-Feb-28 23:19 033 6.7
2015-Feb-28 23:04 033 7.2
2015-Feb-28 22:49 027 7.2
2015-Feb-28 22:34 103 2 gusting 3 6.1
2015-Feb-28 22:19 125 6.7
2015-Feb-28 22:04 136 7.8
2015-Feb-28 21:49 029 7.2
2015-Feb-28 21:34 088 7.2
2015-Feb-28 21:19 288 7.8
2015-Feb-28 21:04 115 2 gusting 3 7.2
2015-Feb-28 20:49 118 0 gusting 3 7.2
2015-Feb-28 20:34 091 7.8
2015-Feb-28 20:19 124 8.3
2015-Feb-28 20:04 094 7.8
2015-Feb-28 19:49 215 8.9
2015-Feb-28 19:34 041 0 gusting 2 8.9
2015-Feb-28 19:19 034 8.9
2015-Feb-28 19:04 090 8.9
2015-Feb-28 18:49 097 9.4
2015-Feb-28 18:34 066 0 gusting 1 9.4
2015-Feb-28 18:19 091 0 gusting 1 10.0
2015-Feb-28 18:04 094 0 gusting 3 10.0
2015-Feb-28 17:49 096 0 gusting 2 10.6
2015-Feb-28 17:34 078 11.1
2015-Feb-28 17:19 130 0 gusting 2 11.1
2015-Feb-28 17:04 138 1 gusting 4 11.7
2015-Feb-28 16:49 208 1 gusting 3 11.7
2015-Feb-28 16:34 219 1 gusting 4 12.2
2015-Feb-28 16:19 231 0 gusting 3 12.2
2015-Feb-28 16:04 212 0 gusting 6 12.8
2015-Feb-28 15:49 203 13.9
2015-Feb-28 15:34 123 14.4
2015-Feb-28 15:18 257 13.9
2015-Feb-28 15:03 207 0 gusting 3 13.3
2015-Feb-28 14:48 235 13.9
2015-Feb-28 14:33 210 13.9
2015-Feb-28 14:18 170 0 gusting 5 14.4
2015-Feb-28 14:03 252 0 gusting 4 14.4
2015-Feb-28 13:48 276 13.9
2015-Feb-28 13:33 191 1 gusting 5 13.3
2015-Feb-28 13:18 255 1 gusting 4 13.3
2015-Feb-28 13:03 228 0 gusting 3 13.3
2015-Feb-28 12:48 226 0 gusting 3 12.8
2015-Feb-28 12:33 210 0 gusting 3 12.2
2015-Feb-28 12:18 250 0 gusting 3 11.7
2015-Feb-28 12:03 119 0 gusting 2 11.1
2015-Feb-28 11:48 254 0 gusting 2 11.1
2015-Feb-28 11:33 225 0 gusting 4 10.0
2015-Feb-28 11:18 015 10.0
2015-Feb-28 11:03 270 8.9
2015-Feb-28 10:48 222 8.3
2015-Feb-28 10:33 284 0 gusting 2 7.2
2015-Feb-28 10:18 259 7.2
2015-Feb-28 10:03 208 0 gusting 2 6.7
2015-Feb-28 09:48 209 0 gusting 3 6.7
2015-Feb-28 09:33 222 5.6
2015-Feb-28 09:18 264 5.6
2015-Feb-28 09:03 221 4.4
2015-Feb-28 08:48 212 3.3
2015-Feb-28 08:33 229 2.2
2015-Feb-28 08:18 212 2.2
2015-Feb-28 08:03 134 2.2
2015-Feb-28 07:48 005 0.6
2015-Feb-28 07:33 122 0 gusting 2 -1.1
2015-Feb-28 07:18 011 -1.1
2015-Feb-28 07:03 011 -1.1
2015-Feb-28 06:48 322 0 gusting 1 -1.1
2015-Feb-28 05:48 328 -0.6
2015-Feb-28 05:33 342 0 gusting 1 -0.6
2015-Feb-28 05:18 038 -0.6
2015-Feb-28 05:02 116 -0.0
2015-Feb-28 04:48 034 -0.6
2015-Feb-28 04:33 040 -0.6
2015-Feb-28 04:18 259 -0.0
2015-Feb-28 04:02 012 -0.0
2015-Feb-28 03:48 111 -0.0
2015-Feb-28 03:33 029 1 gusting 3 0.6
2015-Feb-28 03:18 024 1 gusting 4 0.6
2015-Feb-28 03:03 041 2 gusting 5 0.6
2015-Feb-28 02:48 360 0 gusting 4 1.1
2015-Feb-28 02:33 334 0 gusting 2 1.1
2015-Feb-28 02:17 011 1.1
2015-Feb-28 02:02 097 1.1
2015-Feb-28 01:47 277 1.1
2015-Feb-28 01:32 153 3 gusting 5 2.2
2015-Feb-28 01:16 281 1 gusting 6 3.9
2015-Feb-28 01:02 045 1 gusting 8 3.9
2015-Feb-28 00:47 342 5 gusting 11 3.9
2015-Feb-28 00:32 360 4 gusting 12 3.9
2015-Feb-28 00:17 001 5 gusting 9 3.9
2015-Feb-28 00:02 029 2 gusting 6 3.9
2015-Feb-27 23:47 320 3 gusting 6 3.9
2015-Feb-27 23:32 008 1 gusting 6 3.9
2015-Feb-27 23:17 011 4 gusting 7 3.9
2015-Feb-27 23:02 037 2 gusting 6 3.3